STARLINK-32901, 62895

Orbit data source: Space-Track

STARLINK-32901, 62895 is a payload satellite owned by SpaceX/Seattle (US) in LEO that was launched on Tue, 04 Feb 2025 UTC via an FALCON 9 launch vehicle from the Air Force Eastern Test Range (AFETR). Payload-class satellites include a variety of spacecraft equipped with specific instruments for various scientific and technological missions. These include communications satellites like Starlink; space stations such as the ISS; scientific satellites like the Hubble; Earth observation satellites from companies like Planet Labs, Umbra, and HawkEye 360; GPS; miniature CubeSats for education and research; and military/defense satellites.

Loading next visibility...
Identifier
62895, 2025-024S
Orbit
LEO
Country
Flag of USUS
Related business
Manufacturer
SpaceX/Seattle
Mission
Operational Commercial Communications
Bus & Motor
STARLINK V2M, Unknown motor
Mass
730 kg wet, ~700 kg dry
Launch date (UTC)
2025-02-04 (11 months ago)
Launch vehicle
FALCON 9
Launch site
Air Force Eastern Test Range (AFETR)
Object type
Payload
Rocket body
Debris
Shape & HBR
Box + 2 Pan, 17.7 m
Radar Cross Section
33.884 m², Large (>1 m²)

Expand to show TLE details & history
Last TLE update: 8 hours ago

TLE from 8 hours ago
0 STARLINK-32901
1 62895U 25024S   25354.54889803  .00013197  00000-0  48811-3 0  9993
2 62895  43.0011  52.1964 0000226 314.2420  45.8413 15.27587944 50163
Epoch: 2025-12-20T13:10Z
TLE epoch observation values (Epoch: 2025-12-20T13:10:24.789Z)
Latitude
-0.00004°
Longitude
125.21896°
Altitude
482.693 km
Speed
7.626 km/s
True Right ascension
03h 28m 47s
True Declination
0° 00' 00"
Sunlit
Object was in full shadow at epoch
Visualization orbit readout
Latitude
Unknown
Longitude
Unknown
Altitude
Unknown
Speed
Unknown
Apparent Right ascension
Unknown
Apparent Declination
Unknown
Sunlit
N/A
Visualization observer readout
Local Sidereal Time
19:56:27
Azimuth
Unknown
Elevation
Unknown
Doppler factor
Unknown
Orbital elements
Apogee altitude
485.125 km
Perigee altitude
484.815 km
Semi-major axis
6,863.107 km
Eccentricity
0.00002
Inclination
43.0011°
RAAN
52.1964°
Arg. of periapsis
314.242°
True anomaly
45.84316°
Mean anomaly
45.8413°
Eccentric anomaly
45.84223°
Mean motion
3.81735 °/min
Orbital period
94.31 mins
BSTAR
0.00048811
Loading maneuver chart data...
Computing Atmospheric mass density...
Loading historical data...
Loading historical data...
Loading historical data...
Loading historical data...
Loading historical data...
Loading historical data...
Loading historical data...

Documentation

Showing up to 5 results
|